User: anonymous   Login
Location: Ab? ar R?sh Ba?r?
(24.1861°N, 32.8847°E)
Time: 15:03:44
(UTC+00:00)
Language:

SJ-11-01 - Orbit

View from above orbital plane
View from above orbital plane
View from above satellite
View from above satellite

Ground track
Ground track

The orbit data is extracted from the following two-line orbital elements,

1 36088U 09061A   22024.09280062  .00000170  00000-0  44442-4 0  9998
2 36088  97.9397  45.2394 0012777  41.7170 318.5013 14.60260412650077
Epoch (UTC): 24 January 2022 02:13:37
Eccentricity: 0.0012777
inclination: 97.9397°
perigee height: 683 km
apogee height: 701 km
right ascension of ascending node: 45.2394°
argument of perigee: 41.7170°
revolutions per day: 14.60260412
mean anomaly at epoch: 318.5013°
orbit number at epoch: 65007

The dashed part of the orbit path shows where the satellite is in the earth's shadow,  

DLR